Alev Kaman — TCCN5 — position and weather

sailwx.info

Track history (hours):
 
Tides and Currents Weather Stations Pressure Air Temp Water Temp Dewpoint Dewpoint Depression Visibility Wind Speed Wind Dir Waves Ship Positions

Alev Kaman

Last reported at 2014-Oct-30 17:33 UTC. Time now 2014-Oct-30 17:39 UTC.
Position N 40°43' E 028°54'.

Length 93 m; draft 4.5 m.

Type: Tanker. MMSI: 271000716.

Date/timePositionNaut miles runAvg speedWind from/ knotsBaromVisibWave heightAir tempDewpointWater temp
2014-Oct-30 17:33N 40°43' E 028°54'7 0.2
2014-Oct-28 20:34N 40°46' E 028°46'1010.1
2014-Oct-28 19:33N 40°44' E 028°59'10 9.9
2014-Oct-28 18:34N 40°44' E 029°12'10 9.9
2014-Oct-28 17:31N 40°45' E 029°26'  
2014-Oct-26 09:25N 40°46' E 029°39'0 0.0
2014-Oct-24 20:29N 40°46' E 029°39'6 6.2
2014-Oct-24 19:31N 40°45' E 029°31'8 7.9
2014-Oct-24 18:33N 40°44' E 029°21'8 8.1
2014-Oct-24 17:33N 40°44' E 029°11'9 8.5
2014-Oct-24 16:33N 40°44' E 028°59'9 8.4
2014-Oct-24 15:31N 40°43' E 028°48'  
2014-Oct-21 21:15N 40°27' E 026°48'10 9.9
2014-Oct-21 20:15N 40°32' E 026°59'7 9.7
2014-Oct-21 19:33N 40°35' E 027°07'45 9.0
2014-Oct-21 14:33N 40°49' E 028°04'12 9.8
2014-Oct-21 13:21N 40°47' E 028°19'19 9.9
2014-Oct-21 11:25N 40°44' E 028°44'9 9.9
2014-Oct-21 10:32N 40°43' E 028°55'1010.0
2014-Oct-21 09:34N 40°44' E 029°08'1010.0
2014-Oct-21 08:33N 40°45' E 029°21'9 8.3
2014-Oct-21 07:29N 40°46' E 029°33'  
Track history (hours):
 
Tides and Currents Weather Stations Pressure Air Temp Water Temp Dewpoint Dewpoint Depression Visibility Wind Speed Wind Dir Waves Ship Positions

Alev Kaman

Last reported at 2014-Oct-30 17:33 UTC. Time now 2014-Oct-30 17:39 UTC.
Position N 40°43' E 028°54'.

Length 93 m; draft 4.5 m.

Type: Tanker. MMSI: 271000716.

Date/timePositionNaut miles runAvg speedWind from/ knotsBaromVisibWave heightAir tempDewpointWater temp
2014-Oct-30 17:33N 40°43' E 028°54'7 0.2
2014-Oct-28 20:34N 40°46' E 028°46'1010.1
2014-Oct-28 19:33N 40°44' E 028°59'10 9.9
2014-Oct-28 18:34N 40°44' E 029°12'10 9.9
2014-Oct-28 17:31N 40°45' E 029°26'  
2014-Oct-26 09:25N 40°46' E 029°39'0 0.0
2014-Oct-24 20:29N 40°46' E 029°39'6 6.2
2014-Oct-24 19:31N 40°45' E 029°31'8 7.9
2014-Oct-24 18:33N 40°44' E 029°21'8 8.1
2014-Oct-24 17:33N 40°44' E 029°11'9 8.5
2014-Oct-24 16:33N 40°44' E 028°59'9 8.4
2014-Oct-24 15:31N 40°43' E 028°48'  
2014-Oct-21 21:15N 40°27' E 026°48'10 9.9
2014-Oct-21 20:15N 40°32' E 026°59'7 9.7
2014-Oct-21 19:33N 40°35' E 027°07'45 9.0
2014-Oct-21 14:33N 40°49' E 028°04'12 9.8
2014-Oct-21 13:21N 40°47' E 028°19'19 9.9
2014-Oct-21 11:25N 40°44' E 028°44'9 9.9
2014-Oct-21 10:32N 40°43' E 028°55'1010.0
2014-Oct-21 09:34N 40°44' E 029°08'1010.0
2014-Oct-21 08:33N 40°45' E 029°21'9 8.3
2014-Oct-21 07:29N 40°46' E 029°33'  

Dump ship's entire track history